Weather History for Port Aransas, TX

Change the Weather History Date:

Wednesday, October 23, 2013

  Actual Average (KCRP) Record (KCRP)
Temperature  
Mean Temperature 69 °F 73 °F  
Max Temperature 79 °F 83 °F 94 °F (2004)
Min Temperature 60 °F 63 °F 41 °F (1996)
Degree Days  
Heating Degree Days 0 0  
Month to date heating degree days 0  
Since 1 July heating degree days 0  
Cooling Degree Days 4 9  
Month to date cooling degree days 249  
Year to date cooling degree days 3292  
Growing Degree Days 19 (Base 50)    
Moisture  
Dew Point 51 °F    
Average Humidity 57    
Maximum Humidity 87    
Minimum Humidity 24    
Precipitation  
Precipitation 0.00 in 0.12 in 1.96 in (1953)
Month to date precipitation 2.80  
Year to date precipitation 27.12  
Snow  
Snow 0.00 in - - ()
Month to date snowfall  
Since 1 July snowfall  
Since 1 September snowfall  
Snow Depth -    
Sea Level Pressure  
Sea Level Pressure 30.12 in    
Wind  
Wind Speed 6 mph (NNE)    
Max Wind Speed 9 mph    
Max Gust Speed -    
Visibility 10 miles    
Events      
T = Trace of Precipitation, MM = Missing Value Source: NWS Daily Summary

Daily Weather History Graph

Daily Weather History Graph

Search for Another Location

Airport:

Trip Planner

Search our weather history database for the weather conditions in past years. The results will help you decide how hot, cold, wet, or windy it might be!

Date:

Astronomy

Oct. 23, 2013 Rise Set
Actual Time 7:33 AM CDT 6:51 PM CDT
Civil Twilight 7:09 AM CDT 7:15 PM CDT
Nautical Twilight 6:42 AM CDT 7:42 PM CDT
Astronomical Twilight 6:14 AM CDT 8:09 PM CDT
Moon 10:35 PM CDT (10/23) 11:38 AM CDT (10/23)
Length of Visible Light 12h 05m
Length of Day
11h 17m
Waning Gibbous, 79% of the Moon is Illuminated
Oct 23
Waning Gibbous
Oct 26
Last Quarter
Nov 3
New
Nov 9
First Quarter
Nov 17
Full

Hourly Weather History & Observations

Time (CDT) Temp. Dew Point Humidity Pressure Visibility Wind Dir Wind Speed Gust Speed Precip Events Conditions
12:15 AM 64.2 °F 55.6 °F 73% 30.11 in 10.0 mi North 5.8 mph - N/A   Clear
12:35 AM 64.0 °F 53.8 °F 69% 30.10 in 10.0 mi North 6.9 mph - N/A   Clear
12:55 AM 64.4 °F 53.2 °F 67% 30.11 in 10.0 mi North 8.1 mph - N/A   Clear
1:15 AM 64.6 °F 54.1 °F 69% 30.11 in 10.0 mi NNW 6.9 mph - N/A   Clear
1:35 AM 63.9 °F 54.1 °F 71% 30.11 in 10.0 mi North 6.9 mph - N/A   Clear
1:55 AM 63.1 °F 55.0 °F 75% 30.11 in 10.0 mi North 5.8 mph - N/A   Clear
2:15 AM 63.1 °F 54.7 °F 74% 30.10 in 10.0 mi North 6.9 mph - N/A   Clear
2:35 AM 63.1 °F 54.1 °F 72% 30.10 in 10.0 mi North 6.9 mph - N/A   Clear
2:55 AM 63.0 °F 54.0 °F 72% 30.10 in 10.0 mi North 5.8 mph - N/A   Clear
3:15 AM 62.2 °F 54.7 °F 76% 30.10 in 10.0 mi North 3.5 mph - N/A   Clear
3:35 AM 61.9 °F 55.8 °F 80% 30.10 in 10.0 mi North 3.5 mph - N/A   Clear
3:55 AM 61.7 °F 55.4 °F 80% 30.09 in 10.0 mi North 5.8 mph - N/A   Clear
4:15 AM 61.7 °F 55.6 °F 80% 30.09 in 10.0 mi North 5.8 mph - N/A   Clear
4:35 AM 61.7 °F 56.3 °F 82% 30.09 in 10.0 mi North 4.6 mph - N/A   Clear
4:55 AM 62.1 °F 55.8 °F 80% 30.09 in 10.0 mi North 6.9 mph - N/A   Clear
5:15 AM 62.1 °F 56.1 °F 81% 30.09 in 10.0 mi NNW 5.8 mph - N/A   Clear
5:35 AM 61.7 °F 55.0 °F 79% 30.09 in 10.0 mi North 6.9 mph - N/A   Clear
5:55 AM 61.3 °F 54.5 °F 78% 30.09 in 10.0 mi North 6.9 mph - N/A   Clear
6:15 AM 61.2 °F 55.4 °F 81% 30.10 in 10.0 mi North 5.8 mph - N/A   Clear
6:35 AM 60.8 °F 55.6 °F 83% 30.11 in 10.0 mi North 6.9 mph - N/A   Clear
6:55 AM 60.8 °F 55.6 °F 83% 30.12 in 10.0 mi North 5.8 mph - N/A   Clear
7:15 AM 60.8 °F 56.3 °F 85% 30.12 in 10.0 mi North 5.8 mph - N/A   Clear
7:35 AM 61.0 °F 56.3 °F 85% 30.13 in 10.0 mi North 5.8 mph - N/A   Clear
7:55 AM 60.8 °F 57.0 °F 87% 30.14 in 10.0 mi North 4.6 mph - N/A   Clear
8:15 AM 61.7 °F 57.0 °F 85% 30.14 in 10.0 mi North 3.5 mph - N/A   Clear
8:35 AM 63.7 °F 58.1 °F 82% 30.15 in 10.0 mi North 5.8 mph - N/A   Clear
8:55 AM 65.3 °F 58.1 °F 77% 30.16 in 10.0 mi North 6.9 mph - N/A   Clear
9:15 AM 66.9 °F 57.4 °F 71% 30.16 in 10.0 mi North 6.9 mph - N/A   Clear
9:35 AM 68.2 °F 55.6 °F 64% 30.17 in 10.0 mi NNE 8.1 mph - N/A   Clear
9:55 AM 69.1 °F 55.2 °F 61% 30.17 in 10.0 mi North 8.1 mph - N/A   Clear
10:15 AM 70.0 °F 54.5 °F 58% 30.18 in 10.0 mi NNE 6.9 mph - N/A   Clear
10:35 AM 70.7 °F 53.1 °F 54% 30.18 in 10.0 mi NNE 8.1 mph - N/A   Clear
10:55 AM 70.7 °F 52.0 °F 51% 30.18 in 10.0 mi North 9.2 mph - N/A   Clear
11:15 AM 72.0 °F 49.8 °F 46% 30.18 in 10.0 mi NNE 8.1 mph - N/A   Clear
11:35 AM 72.5 °F 51.1 °F 47% 30.18 in 10.0 mi North 8.1 mph - N/A   Clear
11:55 AM 73.0 °F 48.4 °F 42% 30.18 in 10.0 mi North 8.1 mph - N/A   Clear
12:15 PM 74.3 °F 46.4 °F 37% 30.17 in 10.0 mi North 8.1 mph - N/A   Clear
12:35 PM 75.2 °F 43.0 °F 32% 30.16 in 10.0 mi North 9.2 mph - N/A   Clear
12:55 PM 76.1 °F 43.2 °F 31% 30.16 in 10.0 mi NNE 8.1 mph - N/A   Clear
1:15 PM 76.5 °F 40.6 °F 28% 30.14 in 10.0 mi NNE 9.2 mph - N/A   Clear
1:35 PM 76.8 °F 45.5 °F 33% 30.13 in 10.0 mi North 6.9 mph - N/A   Clear
1:55 PM 76.8 °F 39.4 °F 26% 30.13 in 10.0 mi North 3.5 mph - N/A   Clear
2:15 PM 77.2 °F 40.1 °F 26% 30.12 in 10.0 mi North 4.6 mph - N/A   Clear
2:35 PM 77.9 °F 40.3 °F 26% 30.11 in 10.0 mi North 6.9 mph - N/A   Clear
2:55 PM 78.1 °F 41.0 °F 27% 30.10 in 10.0 mi NNE 6.9 mph - N/A   Clear
3:15 PM 78.6 °F 41.4 °F 26% 30.10 in 10.0 mi NE 8.1 mph - N/A   Clear
3:35 PM 78.8 °F 39.4 °F 24% 30.10 in 10.0 mi ENE 6.9 mph - N/A   Clear
3:55 PM 78.3 °F 40.6 °F 26% 30.10 in 10.0 mi ENE 8.1 mph - N/A   Clear
4:15 PM 77.9 °F 39.9 °F 26% 30.10 in 10.0 mi East 5.8 mph - N/A   Clear
4:35 PM 77.2 °F 42.3 °F 29% 30.10 in 10.0 mi ENE 5.8 mph - N/A   Clear
4:55 PM 77.0 °F 42.6 °F 29% 30.10 in 10.0 mi East 4.6 mph - N/A   Clear
5:15 PM 77.0 °F 43.0 °F 30% 30.10 in 10.0 mi ENE 4.6 mph - N/A   Clear
5:35 PM 76.5 °F 44.1 °F 31% 30.10 in 10.0 mi East 3.5 mph - N/A   Clear
5:55 PM 76.1 °F 45.7 °F 34% 30.10 in 10.0 mi East 4.6 mph - N/A   Clear
6:15 PM 75.2 °F 47.8 °F 38% 30.10 in 10.0 mi East 3.5 mph - N/A   Clear
6:35 PM 73.4 °F 49.1 °F 42% 30.10 in 10.0 mi ESE 4.6 mph - N/A   Clear
6:55 PM 72.3 °F 48.4 °F 43% 30.10 in 10.0 mi ESE 3.5 mph - N/A   Clear
7:15 PM 70.9 °F 50.4 °F 48% 30.10 in 10.0 mi ESE 5.8 mph - N/A   Clear
7:35 PM 70.7 °F 51.1 °F 50% 30.10 in 10.0 mi ESE 3.5 mph - N/A   Clear
7:55 PM 70.2 °F 51.4 °F 51% 30.11 in 10.0 mi East 3.5 mph - N/A   Clear
8:15 PM 69.4 °F 51.6 °F 53% 30.11 in 10.0 mi East 4.6 mph - N/A   Clear
8:35 PM 69.8 °F 51.4 °F 52% 30.12 in 10.0 mi ESE 4.6 mph - N/A   Clear
8:55 PM 70.2 °F 52.5 °F 53% 30.12 in 10.0 mi ESE 3.5 mph - N/A   Clear
9:15 PM 70.5 °F 53.1 °F 54% 30.13 in 10.0 mi Calm Calm - N/A   Clear
9:35 PM 70.2 °F 53.2 °F 55% 30.13 in 10.0 mi SE 3.5 mph - N/A   Clear
9:55 PM 70.0 °F 53.2 °F 55% 30.13 in 10.0 mi SE 3.5 mph - N/A   Clear
10:15 PM 70.5 °F 53.6 °F 55% 30.13 in 10.0 mi Calm Calm - N/A   Clear
10:35 PM 69.8 °F 54.5 °F 58% 30.13 in 10.0 mi SE 4.6 mph - N/A   Clear
10:55 PM 69.3 °F 55.4 °F 61% 30.13 in 10.0 mi SE 3.5 mph - N/A   Clear
11:15 PM 69.3 °F 55.6 °F 62% 30.14 in 10.0 mi Calm Calm - N/A   Clear
11:35 PM 70.0 °F 55.9 °F 61% 30.14 in 10.0 mi SE 5.8 mph - N/A   Clear
11:55 PM 70.0 °F 55.4 °F 60% 30.13 in 10.0 mi SE 3.5 mph - N/A   Clear